Location: Unspecified
(19.1859°N, 0.0000°E)
Time: 07:00:43
(UTC+00:00)

NOAA 15 - Visible Passes

Search period start: 05 April 2026 00:00
Search period end: 15 April 2026 00:00
Orbit: 795 x 808 km, 98.5° (Epoch: 29 March)

Date Brightness Start Highest point End Pass type
(mag) Time Alt. Az. Time Alt. Az. Time Alt. Az.
5 Apr 7.6 20:00:36 10° WSW 20:02:17 11° W 20:03:59 10° WNW visible
6 Apr 6.9 19:31:48 10° SSW 19:35:59 24° W 19:40:09 10° NW visible
7 Apr 5.7 19:04:39 10° S 19:09:42 47° W 19:14:47 10° NNW visible
8 Apr 4.6 18:38:13 10° SSE 18:43:30 87° E 18:48:48 10° N visible
9 Apr 7.5 19:54:33 10° SW 19:57:03 13° W 19:59:33 10° WNW visible
10 Apr 6.7 19:26:20 10° SSW 19:30:45 27° W 19:35:10 10° NW visible
11 Apr 5.4 18:59:20 10° S 19:04:29 54° W 19:09:39 10° NNW visible
12 Apr 4.6 18:33:01 10° SSE 18:38:17 77° ENE 18:43:34 10° N visible
13 Apr 7.4 19:48:46 10° SW 19:51:48 15° W 19:54:50 10° WNW visible
14 Apr 6.5 19:20:53 10° SSW 19:25:30 31° W 19:30:07 10° NW visible
